Regional Weather Roundup
Issued by NWS

Home | Current Version | Previous Version | Text Only | Print | Product List | Glossary Off
Versions: 1 2 3 4 5 6 7 8 9 10 11 12 13 14 15 16 17 18 19 20 21 22 23 24 25 26 27 28 29 30 31 32 33 34 35 36 37 38 39 40 41 42 43 44 45 46 47 48 49 50

000
ASUS43 KIND 160659
RWRIN

WEATHER ROUNDUP FOR INDIANA
NATIONAL WEATHER SERVICE INDIANAPOLIS IN
300 AM EDT WED APR 16 2014

NOTE: "FAIR" INDICATES FEW OR NO CLOUDS BELOW 12,000 FEET WITH NO
SIGNIFICANT WEATHER AND/OR OBSTRUCTIONS TO VISIBILITY.

* - STATION DOES NOT REPORT WEATHER SUCH AS PRECIPITATION OR FOG.

+ - STATION NOT QUALITY CONTROLLED BY THE NATIONAL WEATHER SERVICE.
    USE DATA WITH CAUTION...ESPECIALLY DEWPOINT AND RELATIVE
    HUMIDITY OBSERVATIONS.

INZ001>003-010>013-019-020-160800-
NORTHWEST INDIANA

CITY           SKY/WX    TMP DP  RH WIND       PRES   REMARKS
RENSSELAER +   CLEAR     30  21  69 CALM      30.26R
VALPARAISO     CLEAR     24  18  77 CALM      30.25R

$$

LMZ046-743>745-160800-
SOUTHERN LAKE MICHIGAN

STATION/POSITION TIME  TEMP WIND        PRES
                       AIR  DIR/SP/G
                 (UTC) (F)  (DEG/KT/KT) (MB)
MICHIGAN CITY    0600   30  120/  8/ 10   N/A

$$

INZ004-005-014>016-021>024-160800-
NORTH CENTRAL INDIANA

CITY           SKY/WX    TMP DP  RH WIND       PRES   REMARKS
GOSHEN         CLEAR     26  15  63 SE6       30.26R WCI  19
SOUTH BEND     CLEAR     28  13  53 SE6       30.26R WCI  22

$$

INZ006>009-017-018-025>027-160800-
NORTHEAST INDIANA

CITY           SKY/WX    TMP DP  RH WIND       PRES   REMARKS
ANGOLA *+      CLEAR     23  18  80 CALM      30.25R
FORT WAYNE     CLEAR     24  17  74 S3        30.28R

$$

INZ028-029-035-036-043>045-051>053-160800-
WEST CENTRAL INDIANA

CITY           SKY/WX    TMP DP  RH WIND       PRES   REMARKS
GREENCASTLE +  CLEAR     28  19  69 CALM      30.27R
LAFAYETTE      CLEAR     27  18  69 CALM      30.27R
TERRE HAUTE    CLEAR     30  22  72 SE3       30.28R

$$

INZ030>032-037>040-046>048-054>057-064-065-160800-
CENTRAL INDIANA

CITY           SKY/WX    TMP DP  RH WIND       PRES   REMARKS
INDIANAPOLIS   CLEAR     27  19  72 SE7       30.27R WCI  19
-EAGLE CREEK   CLEAR     29  20  69 S3        30.27R
KOKOMO *+      CLEAR     27  18  69 SE6       30.26S WCI  20
MT COMFORT *+  CLEAR     28  19  69 SE5       30.28R WCI  23
SHELBYVILLE    CLEAR     30  21  69 E6        30.28R WCI  24

$$

INZ033-034-041-042-049-050-058-059-160800-
EAST CENTRAL INDIANA

CITY           SKY/WX    TMP DP  RH WIND       PRES   REMARKS
MUNCIE         CLEAR     27  14  58 SE3       30.27R

$$

INZ060-061-067>069-081>083-085>088-160800-
SOUTHWEST INDIANA

CITY           SKY/WX    TMP DP  RH WIND       PRES   REMARKS
EVANSVILLE     CLEAR     34  29  82 CALM      30.30R
HUNTINGBURG *+ CLEAR     32  21  64 SE3       30.29R

$$

INZ062-063-066-070>080-084-089>092-160800-
SOUTH CENTRAL AND SOUTHEAST INDIANA

CITY           SKY/WX    TMP DP  RH WIND       PRES   REMARKS
BLOOMINGTON    CLEAR     28  20  71 CALM      30.27R

$$




USA.gov is the U.S. government's official web portal to all federal, state and local government web resources and services.